QPF
0.00 0.00 0.00 0.00 0.00 0.00 0.00 0.00 0.01 0.01 0.01 0.00 0.00 0.00 0.00 0.01 0.01 0.01 0.01 0.01 0.01 0.01 0.00 0.00 0.00 0.01 0.01 0.01 0.01 0.01 0.01 0.01 0.01 0.01 0.02 0.03 0.03 0.04
0.00 0.00 0.00 0.00 0.00 0.00 0.00 0.00 0.00 0.00 0.00 0.00 0.00 0.00 0.00 0.00 0.00 0.00 0.00 0.00 0.00 0.00 0.01 0.01 0.01 0.01 0.01 0.01 0.01 0.01 0.01 0.01 0.01 0.01 0.01 0.02 0.02 0.03
0.00 0.00 0.00 0.00 0.00 0.00 0.00 0.00 0.00 0.00 0.00 0.00 0.00 0.00 0.01 0.00 0.00 0.00 0.00 0.00 0.00 0.00 0.01 0.01 0.01 0.00 0.01 0.01 0.01 0.01 0.01 0.01 0.01 0.01 0.01 0.01 0.01 0.02
0.00 0.00 0.00 0.00 0.00 0.00 0.00 0.00 0.00 0.00 0.00 0.00 0.00 0.00 0.00 0.00 0.00 0.00 0.00 0.00 0.00 0.00 0.00 0.00 0.01 0.01 0.01 0.01 0.01 0.01 0.00 0.00 0.00 0.00 0.01 0.01 0.01 0.01
0.00 0.00 0.00 0.00 0.00 0.00 0.00 0.00 0.00 0.00 0.00 0.00 0.00 0.00 0.00 0.00 0.00 0.00 0.00 0.00 0.00 0.00 0.00 0.00 0.00 0.01 0.01 0.01 0.00 0.00 0.00 0.00 0.00 0.00 0.01 0.01 0.01 0.01
0.00 0.00 0.00 0.00 0.00 0.00 0.00 0.00 0.00 0.00 0.00 0.00 0.00 0.00 0.00 0.00 0.00 0.00 0.00 0.00 0.00 0.00 0.00 0.00 0.00 0.01 0.01 0.01 0.01 0.01 0.01 0.00 0.00 0.00 0.00 0.00 0.00 0.00
0.00 0.00 0.00 0.00 0.00 0.00 0.00 0.00 0.00 0.00 0.00 0.00 0.00 0.00 0.00 0.00 0.00 0.00 0.00 0.00 0.00 0.00 0.00 0.00 0.00 0.00 0.00 0.00 0.01 0.01 0.01 0.01 0.00 0.00 0.00 0.00 0.00 0.00
0.00 0.00 0.00 0.00 0.00 0.00 0.00 0.00 0.00 0.00 0.00 0.00 0.00 0.00 0.00 0.00 0.00 0.00 0.00 0.00 0.00 0.00 0.00 0.00 0.00 0.00 0.00 0.00 0.00 0.00 0.00 0.00 0.00 0.00 0.00 0.00 0.00 0.00
0.00 0.00 0.00 0.00 0.00 0.00 0.00 0.00 0.00 0.00 0.00 0.00 0.00 0.00 0.00 0.00 0.00 0.00 0.00 0.00 0.00 0.00 0.00 0.00 0.00 0.00 0.00 0.00 0.00 0.00 0.00 0.00 0.00 0.00 0.00 0.00 0.00 0.00
0.00 0.00 0.00 0.00 0.00 0.00 0.00 0.00 0.00 0.00 0.00 0.00 0.00 0.00 0.00 0.00 0.00 0.00 0.00 0.00 0.00 0.00 0.00 0.00 0.00 0.00 0.00 0.00 0.00 0.00 0.00 0.00 0.00 0.00 0.00 0.00 0.00 0.00
0.00 0.00 0.00 0.00 0.00 0.00 0.00 0.00 0.00 0.00 0.00 0.00 0.00 0.00 0.00 0.00 0.00 0.00 0.00 0.00 0.00 0.00 0.00 0.00 0.00 0.00 0.00 0.00 0.00 0.00 0.00 0.00 0.00 0.00 0.00 0.00 0.00 0.00
0.00 0.00 0.00 0.00 0.00 0.00 0.00 0.00 0.00 0.00 0.00 0.00 0.00 0.00 0.01 0.01 0.00 0.00 0.00 0.00 0.00 0.01 0.00 0.00 0.00 0.01 0.01 0.00 0.00 0.00 0.00 0.00 0.00 0.00 0.01 0.01 0.01 0.00
0.00 0.00 0.00 0.00 0.00 0.00 0.00 0.00 0.00 0.00 0.00 0.00 0.00 0.01 0.01 0.01 0.01 0.01 0.01 0.01 0.01 0.01 0.01 0.01 0.01 0.01 0.01 0.01 0.00 0.00 0.00 0.01 0.01 0.01 0.01 0.01 0.01 0.01
0.00 0.00 0.00 0.00 0.00 0.00 0.00 0.00 0.00 0.00 0.00 0.00 0.00 0.01 0.01 0.01 0.01 0.01 0.01 0.00 0.00 0.01 0.01 0.01 0.01 0.01 0.01 0.01 0.00 0.00 0.00 0.00 0.01 0.01 0.01 0.02 0.03 0.02
0.00 0.00 0.00 0.00 0.00 0.00 0.00 0.00 0.00 0.00 0.00 0.00 0.00 0.01 0.01 0.00 0.00 0.00 0.00 0.00 0.00 0.00 0.00 0.01 0.01 0.01 0.01 0.00 0.00 0.00 0.01 0.00 0.01 0.01 0.02 0.03 0.03 0.02
0.00 0.00 0.00 0.00 0.01 0.01 0.01 0.01 0.00 0.01 0.01 0.01 0.01 0.00 0.00 0.00 0.00 0.00 0.00 0.00 0.00 0.00 0.00 0.00 0.01 0.00 0.00 0.00 0.00 0.00 0.01 0.01 0.01 0.01 0.02 0.03 0.03 0.03
0.00 0.00 0.00 0.01 0.01 0.01 0.01 0.01 0.01 0.00 0.01 0.01 0.01 0.00 0.00 0.00 0.00 0.00 0.00 0.00 0.00 0.00 0.00 0.00 0.00 0.00 0.00 0.00 0.00 0.00 0.00 0.00 0.01 0.00 0.01 0.02 0.02 0.01
0.00 0.00 0.00 0.00 0.00 0.00 0.00 0.00 0.00 0.00 0.00 0.00 0.00 0.00 0.00 0.00 0.00 0.00 0.00 0.00 0.00 0.00 0.00 0.00 0.00 0.00 0.01 0.01 0.00 0.00 0.00 0.00 0.00 0.01 0.00 0.01 0.01 0.01
0.00 0.00 0.00 0.00 0.00 0.00 0.00 0.00 0.00 0.00 0.00 0.00 0.00 0.00 0.00 0.00 0.01 0.01 0.00 0.00 0.00 0.00 0.00 0.00 0.00 0.00 0.01 0.01 0.01 0.00 0.00 0.00 0.00 0.00 0.01 0.01 0.01 0.01
0.00 0.00 0.00 0.00 0.00 0.00 0.00 0.00 0.00 0.00 0.00 0.00 0.00 0.00 0.01 0.01 0.01 0.00 0.00 0.00 0.00 0.00 0.00 0.00 0.00 0.00 0.00 0.00 0.01 0.00 0.00 0.00 0.00 0.00 0.00 0.00 0.01 0.01
0.00 0.00 0.00 0.00 0.00 0.00 0.00 0.00 0.00 0.00 0.00 0.00 0.00 0.00 0.01 0.01 0.01 0.00 0.00 0.00 0.00 0.00 0.00 0.00 0.00 0.00 0.00 0.00 0.00 0.00 0.00 0.00 0.00 0.00 0.00 0.00 0.00 0.00
0.00 0.00 0.00 0.00 0.00 0.00 0.00 0.00 0.00 0.00 0.00 0.00 0.00 0.00 0.00 0.00 0.00 0.00 0.00 0.00 0.00 0.00 0.00 0.00 0.00 0.00 0.00 0.00 0.00 0.00 0.00 0.00 0.00 0.00 0.00 0.00 0.00 0.00
0.00 0.00 0.00 0.00 0.00 0.00 0.00 0.00 0.00 0.00 0.00 0.00 0.00 0.00 0.00 0.00 0.00 0.00 0.00 0.00 0.00 0.00 0.00 0.00 0.00 0.00 0.00 0.00 0.00 0.00 0.00 0.00 0.00 0.00 0.00 0.00 0.00 0.00
MSLP
1023.49 1023.71 1023.98 1024.26 1024.53 1024.74 1024.89 1024.94 1024.88 1024.73 1024.48 1024.14 1023.74 1023.29 1022.80 1022.29 1021.76 1021.23 1020.71 1020.20 1019.72 1019.27 1018.88 1018.53 1018.24 1018.01 1017.83 1017.70 1017.61 1017.54 1017.50 1017.44 1017.37 1017.27 1017.12 1016.93 1016.69 1016.41
1023.97 1024.16 1024.40 1024.67 1024.92 1025.14 1025.29 1025.35 1025.31 1025.17 1024.92 1024.58 1024.17 1023.68 1023.15 1022.58 1021.98 1021.38 1020.78 1020.20 1019.65 1019.13 1018.67 1018.26 1017.90 1017.61 1017.37 1017.20 1017.07 1016.98 1016.92 1016.88 1016.84 1016.79 1016.71 1016.58 1016.41 1016.20
1024.34 1024.48 1024.68 1024.91 1025.14 1025.34 1025.48 1025.55 1025.51 1025.38 1025.15 1024.82 1024.41 1023.92 1023.37 1022.78 1022.16 1021.53 1020.90 1020.28 1019.69 1019.12 1018.60 1018.13 1017.70 1017.33 1017.02 1016.76 1016.56 1016.42 1016.32 1016.26 1016.23 1016.20 1016.17 1016.12 1016.03 1015.90
1024.62 1024.71 1024.85 1025.03 1025.21 1025.38 1025.50 1025.56 1025.52 1025.40 1025.18 1024.87 1024.47 1024.00 1023.47 1022.90 1022.30 1021.68 1021.05 1020.43 1019.82 1019.23 1018.67 1018.14 1017.65 1017.19 1016.79 1016.43 1016.14 1015.91 1015.74 1015.63 1015.58 1015.57 1015.58 1015.58 1015.56 1015.51
1024.85 1024.87 1024.94 1025.06 1025.19 1025.31 1025.40 1025.43 1025.38 1025.25 1025.04 1024.74 1024.37 1023.94 1023.45 1022.92 1022.36 1021.78 1021.19 1020.59 1020.00 1019.41 1018.83 1018.26 1017.70 1017.17 1016.67 1016.21 1015.81 1015.47 1015.22 1015.05 1014.96 1014.93 1014.95 1014.99 1015.03 1015.05
1025.05 1025.00 1025.01 1025.05 1025.12 1025.18 1025.21 1025.20 1025.12 1024.98 1024.76 1024.48 1024.13 1023.74 1023.29 1022.82 1022.32 1021.80 1021.26 1020.72 1020.16 1019.59 1019.01 1018.41 1017.81 1017.21 1016.63 1016.07 1015.57 1015.14 1014.79 1014.54 1014.38 1014.32 1014.32 1014.38 1014.45 1014.51
1025.23 1025.11 1025.05 1025.03 1025.02 1025.01 1024.98 1024.91 1024.79 1024.62 1024.39 1024.11 1023.78 1023.41 1023.02 1022.60 1022.16 1021.71 1021.24 1020.75 1020.24 1019.70 1019.13 1018.54 1017.92 1017.27 1016.63 1016.00 1015.42 1014.89 1014.46 1014.12 1013.89 1013.76 1013.73 1013.76 1013.82 1013.90
1025.38 1025.21 1025.08 1024.98 1024.91 1024.82 1024.72 1024.59 1024.42 1024.20 1023.95 1023.66 1023.34 1022.99 1022.63 1022.26 1021.88 1021.49 1021.08 1020.65 1020.19 1019.70 1019.17 1018.59 1017.97 1017.32 1016.65 1015.97 1015.33 1014.74 1014.22 1013.80 1013.49 1013.29 1013.19 1013.16 1013.19 1013.24
1025.47 1025.26 1025.07 1024.92 1024.77 1024.62 1024.45 1024.25 1024.02 1023.76 1023.47 1023.16 1022.84 1022.51 1022.17 1021.84 1021.50 1021.16 1020.81 1020.43 1020.03 1019.59 1019.10 1018.55 1017.96 1017.33 1016.66 1015.97 1015.30 1014.67 1014.09 1013.60 1013.21 1012.92 1012.73 1012.63 1012.58 1012.58
1025.50 1025.25 1025.03 1024.82 1024.61 1024.39 1024.16 1023.90 1023.61 1023.30 1022.98 1022.65 1022.32 1021.99 1021.68 1021.37 1021.06 1020.76 1020.44 1020.11 1019.76 1019.36 1018.92 1018.43 1017.89 1017.30 1016.66 1016.00 1015.33 1014.68 1014.07 1013.53 1013.06 1012.68 1012.39 1012.19 1012.05 1011.97
1025.47 1025.20 1024.94 1024.69 1024.43 1024.16 1023.87 1023.56 1023.22 1022.88 1022.53 1022.18 1021.83 1021.51 1021.20 1020.90 1020.61 1020.33 1020.04 1019.74 1019.42 1019.07 1018.68 1018.25 1017.77 1017.24 1016.66 1016.05 1015.41 1014.77 1014.15 1013.57 1013.04 1012.58 1012.20 1011.90 1011.66 1011.48
1025.41 1025.12 1024.83 1024.55 1024.26 1023.95 1023.61 1023.26 1022.89 1022.51 1022.14 1021.77 1021.42 1021.09 1020.78 1020.48 1020.20 1019.92 1019.64 1019.36 1019.06 1018.75 1018.40 1018.03 1017.61 1017.16 1016.65 1016.11 1015.53 1014.93 1014.32 1013.72 1013.16 1012.64 1012.17 1011.77 1011.44 1011.18
1025.35 1025.05 1024.75 1024.45 1024.13 1023.79 1023.42 1023.04 1022.65 1022.25 1021.86 1021.48 1021.12 1020.78 1020.46 1020.15 1019.86 1019.57 1019.28 1019.00 1018.71 1018.42 1018.11 1017.79 1017.44 1017.06 1016.63 1016.17 1015.66 1015.12 1014.55 1013.97 1013.39 1012.83 1012.31 1011.84 1011.44 1011.09
1025.33 1025.03 1024.73 1024.41 1024.07 1023.71 1023.33 1022.94 1022.53 1022.12 1021.72 1021.33 1020.96 1020.61 1020.27 1019.94 1019.62 1019.30 1018.99 1018.69 1018.39 1018.10 1017.82 1017.53 1017.24 1016.93 1016.59 1016.21 1015.78 1015.32 1014.80 1014.26 1013.70 1013.14 1012.59 1012.09 1011.63 1011.24
1025.37 1025.08 1024.78 1024.46 1024.12 1023.75 1023.36 1022.96 1022.55 1022.14 1021.73 1021.34 1020.95 1020.58 1020.22 1019.85 1019.49 1019.13 1018.78 1018.44 1018.12 1017.81 1017.53 1017.27 1017.02 1016.77 1016.50 1016.21 1015.87 1015.49 1015.05 1014.57 1014.06 1013.52 1012.99 1012.48 1012.01 1011.59
1025.47 1025.20 1024.91 1024.60 1024.26 1023.90 1023.52 1023.12 1022.72 1022.31 1021.90 1021.50 1021.10 1020.70 1020.30 1019.89 1019.48 1019.07 1018.66 1018.26 1017.89 1017.56 1017.27 1017.01 1016.78 1016.58 1016.38 1016.16 1015.91 1015.61 1015.26 1014.86 1014.41 1013.94 1013.44 1012.96 1012.50 1012.07
1025.60 1025.35 1025.09 1024.80 1024.49 1024.15 1023.78 1023.40 1023.01 1022.61 1022.21 1021.80 1021.38 1020.95 1020.50 1020.04 1019.57 1019.09 1018.62 1018.16 1017.74 1017.36 1017.04 1016.77 1016.56 1016.38 1016.23 1016.07 1015.90 1015.69 1015.42 1015.11 1014.74 1014.34 1013.91 1013.47 1013.04 1012.63
1025.73 1025.52 1025.29 1025.04 1024.76 1024.46 1024.13 1023.77 1023.40 1023.02 1022.62 1022.20 1021.76 1021.30 1020.81 1020.29 1019.76 1019.21 1018.67 1018.15 1017.66 1017.24 1016.88 1016.59 1016.38 1016.21 1016.09 1015.98 1015.86 1015.72 1015.53 1015.30 1015.02 1014.69 1014.33 1013.95 1013.57 1013.19
1025.83 1025.67 1025.49 1025.29 1025.05 1024.79 1024.50 1024.18 1023.84 1023.47 1023.08 1022.66 1022.20 1021.71 1021.17 1020.61 1020.01 1019.41 1018.80 1018.22 1017.68 1017.21 1016.82 1016.50 1016.27 1016.10 1015.99 1015.90 1015.83 1015.73 1015.61 1015.44 1015.23 1014.98 1014.69 1014.37 1014.04 1013.70
1025.91 1025.80 1025.67 1025.52 1025.34 1025.12 1024.87 1024.59 1024.28 1023.94 1023.55 1023.12 1022.65 1022.13 1021.56 1020.95 1020.31 1019.65 1019.00 1018.37 1017.80 1017.29 1016.86 1016.52 1016.27 1016.09 1015.97 1015.89 1015.83 1015.76 1015.67 1015.55 1015.39 1015.20 1014.97 1014.71 1014.43 1014.14
1025.98 1025.92 1025.84 1025.74 1025.60 1025.43 1025.22 1024.98 1024.69 1024.36 1023.98 1023.55 1023.06 1022.52 1021.92 1021.28 1020.61 1019.92 1019.24 1018.58 1017.98 1017.45 1017.00 1016.64 1016.37 1016.17 1016.04 1015.95 1015.88 1015.82 1015.74 1015.65 1015.52 1015.36 1015.18 1014.96 1014.73 1014.48
1026.06 1026.05 1026.01 1025.94 1025.84 1025.71 1025.53 1025.30 1025.03 1024.71 1024.33 1023.89 1023.39 1022.82 1022.21 1021.55 1020.86 1020.16 1019.47 1018.81 1018.20 1017.67 1017.22 1016.85 1016.56 1016.35 1016.20 1016.08 1016.00 1015.92 1015.83 1015.73 1015.62 1015.48 1015.32 1015.14 1014.95 1014.74
1026.20 1026.20 1026.19 1026.15 1026.06 1025.94 1025.78 1025.56 1025.29 1024.95 1024.56 1024.11 1023.59 1023.01 1022.38 1021.71 1021.02 1020.33 1019.65 1019.00 1018.42 1017.90 1017.46 1017.09 1016.81 1016.58 1016.41 1016.27 1016.16 1016.05 1015.94 1015.82 1015.70 1015.56 1015.41 1015.25 1015.09 1014.92
Thickness
5587 5584 5581 5577 5575 5572 5568 5564 5558 5551 5546 5547 5546 5547 5544 5541 5538 5535 5531 5528 5525 5522 5520 5516 5513 5511 5508 5505 5503 5500 5498 5496 5495 5495 5494 5494 5496 5498
5573 5570 5566 5563 5560 5557 5553 5549 5544 5538 5531 5530 5530 5530 5529 5526 5524 5521 5518 5515 5513 5510 5508 5505 5502 5499 5496 5494 5491 5489 5486 5484 5482 5480 5479 5479 5480 5481
5558 5555 5552 5548 5545 5541 5538 5534 5529 5524 5518 5516 5516 5516 5515 5513 5511 5508 5506 5503 5500 5497 5496 5493 5491 5488 5486 5483 5481 5478 5476 5473 5470 5469 5467 5467 5466 5467
5544 5541 5538 5535 5531 5527 5523 5519 5515 5511 5506 5503 5502 5502 5502 5500 5498 5496 5493 5491 5488 5486 5484 5483 5480 5478 5476 5474 5471 5469 5466 5464 5461 5459 5458 5457 5456 5455
5531 5528 5525 5522 5518 5514 5510 5506 5502 5500 5495 5491 5489 5489 5489 5488 5486 5484 5482 5480 5478 5477 5475 5473 5471 5470 5468 5466 5464 5462 5459 5456 5454 5452 5450 5448 5447 5446
5519 5517 5515 5512 5508 5504 5500 5496 5493 5489 5485 5482 5480 5479 5478 5477 5475 5472 5471 5470 5469 5469 5467 5465 5464 5462 5461 5460 5458 5456 5453 5450 5448 5446 5444 5442 5440 5438
5508 5506 5505 5502 5499 5496 5493 5488 5485 5480 5477 5474 5472 5470 5469 5467 5465 5463 5461 5460 5461 5461 5459 5459 5458 5457 5456 5454 5452 5451 5448 5445 5443 5440 5438 5436 5434 5432
5497 5496 5495 5493 5490 5488 5486 5483 5480 5476 5472 5469 5466 5464 5463 5462 5460 5458 5454 5451 5451 5455 5452 5453 5454 5451 5451 5450 5448 5446 5443 5441 5438 5436 5433 5431 5429 5428
5488 5486 5486 5485 5482 5480 5479 5478 5476 5474 5472 5467 5464 5462 5461 5461 5458 5455 5453 5449 5447 5451 5448 5447 5449 5447 5448 5447 5445 5443 5440 5437 5435 5433 5430 5428 5426 5424
5481 5480 5478 5478 5477 5475 5473 5472 5472 5472 5470 5468 5465 5464 5464 5462 5459 5455 5452 5449 5448 5450 5447 5443 5445 5444 5446 5444 5443 5440 5437 5435 5432 5430 5428 5426 5424 5422
5474 5474 5474 5473 5473 5471 5468 5467 5468 5469 5470 5468 5467 5466 5466 5465 5461 5456 5452 5448 5446 5447 5447 5442 5441 5440 5441 5441 5440 5438 5435 5433 5431 5429 5427 5424 5422 5419
5468 5469 5470 5470 5469 5468 5465 5463 5462 5464 5465 5466 5466 5467 5466 5465 5464 5459 5454 5449 5445 5444 5445 5441 5439 5437 5436 5437 5437 5436 5434 5432 5429 5427 5425 5422 5420 5416
5462 5464 5466 5467 5468 5468 5466 5463 5462 5462 5462 5461 5461 5463 5464 5464 5463 5461 5457 5452 5447 5444 5446 5442 5438 5435 5431 5431 5433 5434 5432 5429 5426 5424 5422 5419 5416 5413
5458 5460 5463 5466 5467 5468 5467 5465 5464 5463 5460 5459 5459 5459 5460 5461 5461 5461 5459 5456 5453 5450 5449 5444 5439 5436 5431 5429 5428 5430 5429 5427 5423 5420 5418 5415 5412 5409
5457 5459 5462 5464 5466 5466 5465 5464 5463 5460 5458 5456 5455 5456 5457 5458 5459 5459 5459 5457 5455 5453 5451 5447 5443 5439 5433 5429 5427 5426 5424 5424 5421 5417 5415 5411 5408 5404
5456 5458 5461 5462 5462 5462 5461 5461 5459 5457 5455 5453 5452 5454 5456 5456 5456 5455 5453 5452 5450 5451 5452 5449 5446 5441 5436 5432 5427 5424 5422 5419 5418 5415 5412 5408 5404 5400
5451 5454 5455 5454 5454 5454 5454 5455 5454 5453 5451 5450 5449 5450 5451 5452 5453 5453 5451 5449 5447 5446 5446 5448 5446 5443 5439 5433 5428 5425 5421 5419 5416 5413 5410 5406 5402 5399
5449 5448 5447 5447 5447 5447 5447 5447 5447 5446 5445 5446 5446 5445 5446 5447 5449 5450 5450 5448 5446 5446 5445 5444 5443 5441 5438 5436 5431 5426 5422 5419 5416 5414 5410 5405 5402 5399
5446 5444 5443 5443 5443 5443 5442 5441 5440 5440 5441 5441 5441 5441 5443 5444 5445 5446 5447 5446 5446 5446 5446 5445 5442 5439 5435 5432 5432 5429 5423 5420 5417 5414 5410 5406 5402 5400
5442 5441 5440 5439 5439 5438 5437 5436 5435 5436 5436 5436 5437 5438 5439 5440 5442 5443 5444 5445 5445 5445 5445 5446 5444 5441 5437 5434 5432 5430 5427 5422 5418 5415 5412 5408 5405 5403
5438 5438 5437 5436 5435 5434 5433 5432 5431 5431 5431 5432 5434 5435 5436 5438 5440 5442 5443 5446 5446 5445 5445 5446 5448 5448 5444 5439 5434 5432 5430 5427 5422 5417 5414 5411 5407 5404
5436 5435 5434 5433 5432 5430 5429 5428 5428 5428 5429 5430 5431 5433 5435 5437 5438 5441 5443 5444 5445 5445 5447 5449 5451 5449 5446 5442 5437 5435 5432 5430 5427 5423 5419 5415 5410 5407
5435 5433 5432 5430 5429 5428 5427 5426 5426 5425 5426 5427 5428 5430 5433 5436 5439 5441 5443 5445 5446 5448 5448 5449 5450 5449 5447 5444 5441 5438 5437 5433 5429 5426 5424 5421 5417 5413